IRIDIUM 33 DEB, 46435

Orbit data source: Space-Track

IRIDIUM 33 DEB, 46435 is space debris in LEO originally from a launch on Sun, 14 Sep 1997 UTC launched from the Tyuratam Missile And Space Complex (TTMTR). The debris from Iridium 33, an American commercial communications satellite, has been tracked extensively since its accidental collision with the defunct Russian satellite Cosmos 2251 in 2009. This event, occurring at high speed in low Earth orbit (LEO), generated thousands of pieces of space debris, significantly increasing the risk of further collisions. The Iridium 33 debris cloud has impacted space traffic management and orbital debris mitigation strategies, making it a subject of ongoing study in space situational awareness.

Loading next visibility...
Identifier
46435, 1997-051ABN
Orbit
LEO
Country
Flag of USUS
Related business
Manufacturer
Unknown
Mission
Spacecraft
Bus & Motor
Unknown
Mass
Unknown
Launch date (UTC)
1997-09-14 (28 years ago)
Launch vehicle
Unknown
Launch site
Tyuratam Missile And Space Complex (TTMTR)
Object type
Payload
Rocket body
Debris
Shape & HBR
Unknown shape, 0.1 m
Radar Cross Section
Small (<0.1 m²)

Expand to show TLE details & history
Last TLE update: 3 days ago

TLE from 3 days ago
0 IRIDIUM 33 DEB
1 46435U 97051ABN 25300.52686948  .00028252  00000-0  86255-2 0  9999
2 46435  86.2782 213.7780 0219161  63.2747 116.7644 14.28810826 72552
Epoch: 2025-10-27T12:38Z
TLE epoch observation values (Epoch: 2025-10-27T12:38:41.523Z)
Latitude
-2.38172°
Longitude
168.13175°
Altitude
872.617 km
Speed
7.378 km/s
True Right ascension
02h 15m 43s
True Declination
-2° 22' 04"
Sunlit
Object was in full shadow at epoch
Visualization orbit readout
Latitude
Unknown
Longitude
Unknown
Altitude
Unknown
Speed
Unknown
Apparent Right ascension
Unknown
Apparent Declination
Unknown
Sunlit
N/A
Visualization observer readout
Local Sidereal Time
11:41:58
Azimuth
Unknown
Elevation
Unknown
Doppler factor
Unknown
Orbital elements
Apogee altitude
949.837 km
Perigee altitude
635.525 km
Semi-major axis
7,170.818 km
Eccentricity
0.02192
Inclination
86.2782°
RAAN
213.778°
Arg. of periapsis
63.2747°
True anomaly
118.97885°
Mean anomaly
116.7644°
Eccentric anomaly
117.87441°
Mean motion
3.57429 °/min
Orbital period
100.72 mins
BSTAR
0.0086255
Loading maneuver chart data...
Computing Atmospheric mass density...

Documentation

Showing up to 5 results
|